Regional Weather Roundup
Issued by NWS

Home | Current Version | Previous Version | Text Only | Print | Product List | Glossary Off
Versions: 1 2 3 4 5 6 7 8 9 10 11 12 13 14 15 16 17 18 19 20 21 22 23 24 25 26 27 28 29 30 31 32 33 34 35 36 37 38 39 40 41 42 43 44 45 46 47 48 49 50

000
ASUS45 KBOU 220807
RWRCO

WEATHER ROUNDUP FOR COLORADO
NATIONAL WEATHER SERVICE DENVER/BOULDER CO
200 AM MDT FRI SEP 22 2017

NOTE: "FAIR" INDICATES FEW OR NO CLOUDS BELOW 12000 FEET WITH NO
SIGNIFICANT WEATHER AND/OR OBSTRUCTIONS TO VISIBILITY.

COZ001>005-013-030-031-220900-
...NORTHWEST COLORADO...

CITY           SKY/WX    TMP DP  RH WIND       PRES   REMARKS
CRAIG          FAIR      64  18  17 S12       29.77S
HAYDEN         FAIR      55  24  30 VRB5      29.83R
MEEKER         FAIR      65  21  18 S15G24    29.79R
RABBIT EARS PA FAIR      46  19  34 SW10G20   30.06S
STEAMBOAT SPGS FAIR      49  28  45 E6        29.84S
WALDEN         FAIR      37  23  56 SE9       29.93R
$$

COZ006>008-011-220900-
...WEST CENTRAL VALLEYS...

CITY           SKY/WX    TMP DP  RH WIND       PRES   REMARKS
GRAND JUNCTION FAIR      73  29  19 SE12G22   29.74R
MONTROSE       FAIR      62  28  27 S7        29.86R
EAGLE          FAIR      47  25  42 E9        29.86R
RIFLE          FAIR      71  20  14 VRB7G21   29.77R
DELTA          FAIR      72  24  17 SW10G18   29.81R
NUCLA          NOT AVBL
$$

COZ017>023-064>068-220900-
...SOUTHWEST COLORADO...

CITY           SKY/WX    TMP DP  RH WIND       PRES   REMARKS
DURANGO        FAIR      55  33  43 N5        29.99S
CORTEZ         MOCLDY    65  34  31 S14       29.91S
PAGOSA SPRINGS MOCLDY    51  29  41 CALM      30.06S
TELLURIDE      FAIR      55  28  34 S13G29    30.07S
WOLF CREEK PAS CLOUDY    37  30  75 S17G35    30.30R
$$

COZ009-010-012-014-032>034-037-058>063-220900-
...CENTRAL COLORADO...

CITY           SKY/WX    TMP DP  RH WIND       PRES   REMARKS
ASPEN          FAIR      50  24  36 VRB5      29.92R
BUENA VISTA    FAIR      58  23  26 CALM      29.95S
COPPER MTN     FAIR      46  14  27 S23G37    30.17F
BERTHOUD PASS  FAIR      37  30  75 SW14G25   30.19S
COTTONWOOD PAS FAIR      59  23  25 SW13G23   30.07F
GUNNISON       FAIR      44  26  49 N7        29.98R
KREMMLING      FAIR      43  30  61 CALM      29.91R
LEADVILLE      FAIR      52  19  27 SE12      30.06R
MONARCH PASS   FAIR      43  25  49 SW46G59   30.31S
SALIDA         FAIR      62  25  23 S8        30.02R
SUNLIGHT       FAIR      43  18  36 S8G28     30.11S
WILKERSON PASS FAIR      45  19  36 SW23G31   30.15S
$$

COZ069>075-220900-
...SAN LUIS VALLEY/SANGRE DE CRISTO MOUNTAINS...

CITY           SKY/WX    TMP DP  RH WIND       PRES   REMARKS
ALAMOSA        FAIR      49  30  48 SW12      30.00S
DEL NORTE      FAIR      59  33  37 SW23      30.03S
LA VETA PASS   FAIR      50  27  40 S28G46    30.21S
SAGUACHE       FAIR      43  27  52 N6        30.03R
$$

COZ035-036-038>040-220900-
...NORTHERN COLORADO FRONT RANGE...

CITY           SKY/WX    TMP DP  RH WIND       PRES   REMARKS
DENVER INTL AP FAIR      62  22  21 S13       29.74R
DMNS CITY PARK   N/A     68  23  18 E8        29.73S
AURORA         CLEAR     69  23  17 S12       29.76S
FRONT RANGE AP FAIR      66  23  19 SE10      29.76S
ERIE MUNI ARPT FAIR      66  21  17 SW7       29.75R
BOULDER MUN AP FAIR      68  25  19 SW7       29.71R
CENTENNIAL     FAIR      69  23  17 S13       29.77S
BROOMFIELD     FAIR      64  28  25 SW5       29.75S
FORT COLLINS   FAIR      54  30  40 NW6       29.71R
LONGMONT       FAIR      55  33  43 W5        29.71S
$$

COZ041-046-047-076>085-087-088-220900-
...PIKES PEAK/PALMER DIVIDE AND SOUTHERN FOOTHILLS...

CITY           SKY/WX    TMP DP  RH WIND       PRES   REMARKS
COLO. SPRINGS  FAIR      63  27  25 S14       29.84S
A. F. ACADEMY  FAIR      60  24  25 CALM      29.83F
SCHRIEVER AFB  FAIR      60  24  25 SW8       29.84S
CHEYENNE MTN   FAIR      67  21  17 S10G18    29.82S
ELLICOTT         N/A    N/A N/A N/A S15       29.81F
FALCON         FAIR      57  23  27 SW9       29.89S
FORT CARSON    FAIR      65  24  21 S9        29.79F
LIMON          FAIR      57  23  26 S3        29.79R
MONUMENT HILL  FAIR      54  25  32 S12       29.89S
CANON CITY     CLEAR     61  28  29 NW9       29.78S
WALSENBURG     FAIR      66  28  24 SW14G20   29.86F
TRINIDAD       FAIR      72  36  26 SW16G26   29.86R
$$

COZ042>045-048>051-090-091-220900-
...NORTHEAST COLORADO...

CITY           SKY/WX    TMP DP  RH WIND       PRES   REMARKS
GREELEY ARPT   FAIR      51  37  58 N8        29.71R
AKRON          FAIR      71  22  15 SW20      29.69R
BURLINGTON     FAIR      60  40  47 S7        29.74R
WRAY           FAIR      63  32  31 W6        29.68R
YUMA           FAIR      54  34  47 S8        29.68S
STERLING       FAIR      48  34  57 W7        29.64R
HOLYOKE        FAIR      64  34  32 S13       29.66S
FORT MORGAN    FAIR      62  25  24 SW13      29.68R
$$

COZ086-089-092>099-220900-
...SOUTHEAST COLORADO...

CITY           SKY/WX    TMP DP  RH WIND       PRES   REMARKS
PUEBLO         FAIR      73  30  20 SW14      29.74R
LA JUNTA       FAIR      75  35  23 S9        29.73F
LAMAR          FAIR      77  37  23 S16       29.71S
SPRINGFIELD      N/A     63  48  58 S20       29.83S
$$



USA.gov is the U.S. government's official web portal to all federal, state and local government web resources and services.